Über Starlink 3004
Group: 3 satellites
Beschreibung wird geladen...
Live-Position
3D-Globus wird geladen...
Nächste Überflüge
Höhenverlauf
Altitude vs Time
uPlot chart will show altitude changes over time
Zweizeiliger Elementsatz
1 48880U 21059B 25308.31576953 .00000181 00000-0 18708-4 0 9990
2 48880 97.6589 71.6223 0002188 179.9929 180.1295 15.01262442239995
Epoch: 4. Nov. 2025 •
Age: 16 hours
Aktueller Status
Höhe 568.1 km
Geschwindigkeit 7.58 km/s
Subsatellitenpunkt 29.63°N,
27.85°E
Startdatum 30. Juni 2021
Alter 4.3 years
Typ internet
Technische Details
Klassifizierung Payload
Masse 260.00 kg
Trockenmasse 248.00 kg
Gesamtmasse 260.00 kg
Länge 0.20 m
Durchmesser 2.80 m
Spannweite 9.00 m
Form Box + pan
Hersteller SPXS
Bus-Typ Starlink
Phasenstatus In Orbit
Besitzer/Staat SPXS/US
Große Konstellationen
Loading constellations...